This is the latest recevied weather packets stored in our database for station/object UA1CAS-13. If no packets are shown the sender has not sent any weather packets the latest 10 day(s).
| Time | Temp. | Humidity | Pressure | Rain* | Wind** | Luminosity | Snow |
|---|---|---|---|---|---|---|---|
| 1777567940 | 11.11° C | 66% | 1017 hPa | - | - | - | - |
| 1777567039 | 11.11° C | 65% | 1017 hPa | - | - | - | - |
| 1777566138 | 11.11° C | 64% | 1017 hPa | - | - | - | - |
| 1777565236 | 11.11° C | 63% | 1017 hPa | - | - | - | - |
| 1777564335 | 11.11° C | 62% | 1017 hPa | - | - | - | - |
| 1777563434 | 11.11° C | 60% | 1017 hPa | - | - | - | - |
| 1777562533 | 11.11° C | 59% | 1017 hPa | - | - | - | - |
| 1777561632 | 11.11° C | 59% | 1017 hPa | - | - | - | - |
| 1777560731 | 11.11° C | 57% | 1017 hPa | - | - | - | - |
| 1777559830 | 11.11° C | 57% | 1016 hPa | - | - | - | - |
| 1777558929 | 11.11° C | 55% | 1016 hPa | - | - | - | - |
| 1777558028 | 11.11° C | 53% | 1016 hPa | - | - | - | - |
| 1777557127 | 12.78° C | 49% | 1016 hPa | - | - | - | - |
| 1777556226 | 13.33° C | 49% | 1016 hPa | - | - | - | - |
| 1777555325 | 12.78° C | 50% | 1017 hPa | - | - | - | - |
| 1777554423 | 12.78° C | 49% | 1017 hPa | - | - | - | - |
| 1777553522 | 12.22° C | 49% | 1017 hPa | - | - | - | - |
| 1777552621 | 12.78° C | 45% | 1017 hPa | - | - | - | - |
| 1777551720 | 13.89° C | 43% | 1017 hPa | - | - | - | - |
| 1777550819 | 12.78° C | 45% | 1017 hPa | - | - | - | - |
| 1777549918 | 12.22° C | 44% | 1017 hPa | - | - | - | - |
| 1777549016 | 11.67° C | 44% | 1017 hPa | - | - | - | - |
| 1777548115 | 12.22° C | 41% | 1017 hPa | - | - | - | - |
| 1777547214 | 11.67° C | 39% | 1017 hPa | - | - | - | - |
| 1777546313 | 11.67° C | 40% | 1017 hPa | - | - | - | - |
* Rain since midnight (hover to see other rain measurements)
** Current wind speed in m/s (hover to see current wind gust speed)